Location: Cheb
(50.0670°N, 12.3670°E)
Time: 20:30:40
(UTC+02:00)

ISS - Pass Details

Date: 26 March 2019
Orbit: 408 x 410 km, 51.6° (Epoch: 26 April)

Event Time Altitude Azimuth Distance (km) Brightness Sun altitude
Rises 20:58:00 0° 271° (W) 2,335 0.9 -22.6°
Reaches altitude 10° 21:00:06 10° 274° (W) 1,474 -0.2 -22.9°
Enters shadow 21:02:32 43° 295° (WNW) 582 -2.7 -23.2°
